• In Österreich
  • Länderverzeichnis
  • Für 7 Tage
  • Wassertemperatur
  • Satellitenkarten
  • Wetterkarte
  • News
  • Widgets
  • user-avatar
    Anmelden

    Stündliche Wetter Chyhyn

    Heute, 14 August, Dienstag

    Zeit Temperatur Niederschläge Wind Luftdruck Luftfeuchtigkeit
    00:00 +17°C° 0 mm 2 m/S 748 mmHg 68%
    01:00 +17°C° 0 mm 2 m/S 748 mmHg 69%
    02:00 +17°C° 0 mm 3 m/S 748 mmHg 69%
    03:00 +17°C° 0,1 mm 2 m/S 748 mmHg 71%
    04:00 +17°C° 0,1 mm 2 m/S 748 mmHg 73%
    05:00 +17°C° 0,1 mm 2 m/S 748 mmHg 75%
    06:00 +18°C° 0 mm 2 m/S 748 mmHg 73%
    07:00 +20°C° 0 mm 3 m/S 748 mmHg 71%
    08:00 +21°C° 0 mm 3 m/S 748 mmHg 67%
    09:00 +24°C° 0 mm 3 m/S 748 mmHg 64%
    10:00 +25°C° 0 mm 3 m/S 748 mmHg 61%
    11:00 +27°C° 0 mm 3 m/S 748 mmHg 57%
    12:00 +28°C° 0,1 mm 3 m/S 748 mmHg 56%
    13:00 +29°C° 0,1 mm 3 m/S 748 mmHg 54%
    14:00 +30°C° 0,1 mm 3 m/S 748 mmHg 53%
    15:00 +29°C° 0,1 mm 2 m/S 748 mmHg 56%
    16:00 +29°C° 0,1 mm 2 m/S 747 mmHg 58%
    17:00 +29°C° 0,1 mm 2 m/S 747 mmHg 61%
    18:00 +27°C° 0 mm 1 m/S 747 mmHg 65%
    19:00 +26°C° 0 mm 1 m/S 747 mmHg 69%
    20:00 +24°C° 0 mm 1 m/S 747 mmHg 72%
    21:00 +24°C° 0 mm 2 m/S 748 mmHg 72%
    22:00 +23°C° 0 mm 2 m/S 748 mmHg 72%
    23:00 +23°C° 0 mm 2 m/S 748 mmHg 72%

    Morgen, 15 August, Mittwoch

    Zeit Temperatur Niederschläge Wind Luftdruck Luftfeuchtigkeit
    00:00 +23°C° 0 mm 2 m/S 748 mmHg 72%
    01:00 +21°C° 0 mm 2 m/S 747 mmHg 71%
    02:00 +21°C° 0 mm 3 m/S 747 mmHg 71%
    03:00 +21°C° 0 mm 3 m/S 747 mmHg 72%
    04:00 +20°C° 0 mm 3 m/S 747 mmHg 73%
    05:00 +20°C° 0 mm 3 m/S 747 mmHg 75%
    06:00 +21°C° 0 mm 3 m/S 747 mmHg 71%
    07:00 +24°C° 0 mm 3 m/S 747 mmHg 67%
    08:00 +26°C° 0 mm 4 m/S 747 mmHg 63%
    09:00 +27°C° 0 mm 4 m/S 747 mmHg 56%
    10:00 +29°C° 0 mm 5 m/S 747 mmHg 50%
    11:00 +32°C° 0 mm 5 m/S 747 mmHg 44%
    12:00 +32°C° 0 mm 5 m/S 747 mmHg 41%
    13:00 +33°C° 0 mm 5 m/S 747 mmHg 39%
    14:00 +33°C° 0 mm 6 m/S 746 mmHg 36%
    15:00 +33°C° 0 mm 5 m/S 746 mmHg 40%
    16:00 +32°C° 0 mm 4 m/S 746 mmHg 45%
    17:00 +30°C° 0 mm 3 m/S 746 mmHg 49%
    18:00 +28°C° 0 mm 3 m/S 747 mmHg 52%
    19:00 +26°C° 0 mm 3 m/S 747 mmHg 55%
    20:00 +24°C° 0 mm 3 m/S 747 mmHg 59%
    21:00 +24°C° 0,2 mm 3 m/S 747 mmHg 62%
    22:00 +22°C° 0,2 mm 3 m/S 747 mmHg 66%
    23:00 +21°C° 0,2 mm 2 m/S 747 mmHg 70%

    übermorgen, 16 August, Donnerstag

    Zeit Temperatur Niederschläge Wind Luftdruck Luftfeuchtigkeit
    00:00 +21°C° 0,5 mm 2 m/S 747 mmHg 75%
    01:00 +21°C° 0,5 mm 1 m/S 747 mmHg 80%
    02:00 +20°C° 0,5 mm 1 m/S 747 mmHg 85%
    03:00 +20°C° 0,2 mm 1 m/S 748 mmHg 86%
    04:00 +20°C° 0,2 mm 1 m/S 748 mmHg 87%
    05:00 +20°C° 0,2 mm 1 m/S 748 mmHg 88%
    06:00 +21°C° 0,2 mm 1 m/S 748 mmHg 86%
    07:00 +22°C° 0,2 mm 1 m/S 748 mmHg 83%
    08:00 +23°C° 0,2 mm 1 m/S 748 mmHg 80%
    09:00 +25°C° 0,1 mm 2 m/S 749 mmHg 74%
    10:00 +26°C° 0,1 mm 2 m/S 749 mmHg 68%
    11:00 +27°C° 0,1 mm 2 m/S 749 mmHg 61%
    12:00 +27°C° 0,1 mm 2 m/S 749 mmHg 61%
    13:00 +27°C° 0,1 mm 2 m/S 749 mmHg 60%
    14:00 +28°C° 0,1 mm 2 m/S 749 mmHg 60%
    15:00 +27°C° 0,3 mm 2 m/S 748 mmHg 63%
    16:00 +27°C° 0,3 mm 2 m/S 748 mmHg 66%
    17:00 +26°C° 0,3 mm 2 m/S 748 mmHg 70%
    18:00 +25°C° 0,4 mm 2 m/S 749 mmHg 75%
    19:00 +23°C° 0,4 mm 2 m/S 749 mmHg 81%
    20:00 +21°C° 0,4 mm 2 m/S 749 mmHg 86%
    21:00 +21°C° 0,1 mm 1 m/S 749 mmHg 87%
    22:00 +21°C° 0,1 mm 1 m/S 749 mmHg 87%
    23:00 +19°C° 0,1 mm 0 m/S 749 mmHg 88%

    17 August, Freitag

    Zeit Temperatur Niederschläge Wind Luftdruck Luftfeuchtigkeit
    00:00 +21°C° 0 mm 1 m/S 749 mmHg 88%
    01:00 +20°C° 0 mm 1 m/S 749 mmHg 88%
    02:00 +20°C° 0 mm 1 m/S 749 mmHg 89%
    03:00 +20°C° 0 mm 1 m/S 750 mmHg 90%
    04:00 +19°C° 0 mm 1 m/S 750 mmHg 91%
    05:00 +19°C° 0 mm 1 m/S 750 mmHg 93%
    06:00 +20°C° 0 mm 1 m/S 750 mmHg 88%
    07:00 +22°C° 0 mm 1 m/S 750 mmHg 84%
    08:00 +23°C° 0 mm 1 m/S 750 mmHg 80%
    09:00 +24°C° 0,1 mm 1 m/S 750 mmHg 73%
    10:00 +26°C° 0,1 mm 1 m/S 750 mmHg 67%
    11:00 +27°C° 0,1 mm 1 m/S 750 mmHg 60%
    12:00 +28°C° 0,4 mm 1 m/S 750 mmHg 58%
    13:00 +28°C° 0,4 mm 1 m/S 750 mmHg 56%
    14:00 +29°C° 0,4 mm 1 m/S 750 mmHg 54%
    15:00 +28°C° 0,8 mm 1 m/S 750 mmHg 59%
    16:00 +27°C° 0,8 mm 1 m/S 749 mmHg 64%
    17:00 +27°C° 0,8 mm 2 m/S 749 mmHg 69%
    18:00 +25°C° 0,2 mm 2 m/S 749 mmHg 74%
    19:00 +24°C° 0,2 mm 2 m/S 749 mmHg 79%
    20:00 +21°C° 0,2 mm 3 m/S 750 mmHg 84%
    21:00 +21°C° 1,1 mm 3 m/S 750 mmHg 87%
    22:00 +20°C° 1,1 mm 3 m/S 750 mmHg 89%
    23:00 +19°C° 1,1 mm 3 m/S 750 mmHg 92%

    18 August, Samstag

    Zeit Temperatur Niederschläge Wind Luftdruck Luftfeuchtigkeit
    00:00 +19°C° 0,3 mm 2 m/S 750 mmHg 92%
    01:00 +19°C° 0,3 mm 2 m/S 750 mmHg 92%
    02:00 +19°C° 0,3 mm 2 m/S 750 mmHg 92%
    03:00 +19°C° 0,2 mm 2 m/S 750 mmHg 93%
    04:00 +20°C° 0,2 mm 1 m/S 750 mmHg 94%
    05:00 +19°C° 0,2 mm 1 m/S 750 mmHg 94%
    06:00 +21°C° 0,1 mm 1 m/S 750 mmHg 90%
    07:00 +21°C° 0,1 mm 2 m/S 750 mmHg 87%
    08:00 +23°C° 0,1 mm 2 m/S 750 mmHg 83%
    09:00 +25°C° 0,3 mm 2 m/S 750 mmHg 78%
    10:00 +26°C° 0,3 mm 2 m/S 750 mmHg 72%
    11:00 +27°C° 0,3 mm 2 m/S 750 mmHg 67%
    12:00 +28°C° 0,4 mm 2 m/S 750 mmHg 63%
    13:00 +29°C° 0,4 mm 2 m/S 750 mmHg 60%
    14:00 +29°C° 0,4 mm 2 m/S 750 mmHg 56%
    15:00 +29°C° 0,7 mm 2 m/S 750 mmHg 61%
    16:00 +28°C° 0,7 mm 2 m/S 750 mmHg 65%
    17:00 +27°C° 0,7 mm 2 m/S 749 mmHg 70%
    18:00 +26°C° 1,5 mm 2 m/S 750 mmHg 75%
    19:00 +24°C° 1,5 mm 2 m/S 750 mmHg 79%
    20:00 +23°C° 1,5 mm 2 m/S 750 mmHg 84%
    21:00 +21°C° 1 mm 2 m/S 750 mmHg 86%
    22:00 +21°C° 1 mm 2 m/S 750 mmHg 88%
    23:00 +20°C° 1 mm 2 m/S 750 mmHg 91%

    19 August, Sonntag

    Zeit Temperatur Niederschläge Wind Luftdruck Luftfeuchtigkeit
    00:00 +20°C° 0,6 mm 2 m/S 750 mmHg 91%
    01:00 +20°C° 0,6 mm 2 m/S 750 mmHg 91%
    02:00 +19°C° 0,6 mm 2 m/S 750 mmHg 92%
    03:00 +19°C° 0,1 mm 2 m/S 750 mmHg 92%
    04:00 +19°C° 0,1 mm 2 m/S 750 mmHg 93%
    05:00 +18°C° 0,1 mm 2 m/S 750 mmHg 93%
    06:00 +20°C° 0,1 mm 2 m/S 750 mmHg 90%
    07:00 +21°C° 0,1 mm 2 m/S 750 mmHg 86%
    08:00 +23°C° 0,1 mm 2 m/S 751 mmHg 82%
    09:00 +24°C° 0,7 mm 2 m/S 750 mmHg 77%
    10:00 +26°C° 0,7 mm 2 m/S 750 mmHg 72%
    11:00 +27°C° 0,7 mm 2 m/S 750 mmHg 66%
    12:00 +27°C° 1 mm 1 m/S 750 mmHg 65%
    13:00 +27°C° 1 mm 1 m/S 750 mmHg 64%
    14:00 +27°C° 1 mm 1 m/S 750 mmHg 62%
    15:00 +27°C° 0,8 mm 1 m/S 750 mmHg 68%
    16:00 +26°C° 0,8 mm 2 m/S 749 mmHg 74%
    17:00 +25°C° 0,8 mm 2 m/S 749 mmHg 80%
    18:00 +24°C° 0 mm 2 m/S 749 mmHg 82%
    19:00 +22°C° 0 mm 1 m/S 749 mmHg 83%
    20:00 +21°C° 0 mm 1 m/S 749 mmHg 85%
    21:00 +21°C° 0 mm 1 m/S 749 mmHg 86%
    22:00 +20°C° 0 mm 1 m/S 749 mmHg 86%
    23:00 +20°C° 0 mm 1 m/S 749 mmHg 87%
    Mehr zeigen